FW1970 Weather Reports


Display with metric or nautical units.
time (UTC)temp
F
wind
direction
speed
MPH
gust
MPH
rain 1hr
in
rain 24hr
in
rain mn
in
humidity
%
barometer
mb
20260506111533 56 219 4.0 10.0 0.06 0.41 0.41 85 1003.7
20260506110030 56 198 4.0 8.0 0.09 0.41 0.41 84 1003.7
20260506104533 56 219 2.0 9.0 0.12 0.40 0.40 84 1003.6
20260506103027 55 200 3.0 9.0 0.11 0.37 0.37 83 1003.8
20260506101527 56 190 2.0 9.0 0.11 0.35 0.35 82 1003.9
20260506100024 55 219 4.0 13.0 0.12 0.32 0.32 82 1003.9
20260506094523 56 201 3.0 7.0 0.12 0.28 0.28 79 1003.9
20260506093021 56 194 5.0 15.0 0.13 0.26 0.26 79 1003.8
20260506091519 56 221 4.0 14.0 0.13 0.24 0.24 78 1003.9
20260506090021 56 232 6.0 11.0 0.11 0.20 0.20 77 1004.2
20260506084514 56 211 3.0 11.0 0.07 0.16 0.16 76 1004.4
20260506083012 56 197 4.0 12.0 0.04 0.13 0.13 76 1004.4
20260506081608 56 198 2.0 8.0 0.02 0.11 0.11 74 1004.3
20260506073003 56 167 3.0 6.0 0.02 0.10 0.09 71 1003.9
20260506071502 56 173 2.0 4.0 0.02 0.10 0.09 70 1004.1
20260506070104 56 170 3.0 7.0 0.04 0.10 0.09 70 1004.5
20260506061550 57 217 5.0 10.0 0.04 0.09 0.07 68 1005.1
20260506044538 60 299 2.0 9.0 0.00 0.02 0.00 63 1006.5
20260506043033 60 266 5.0 10.0 0.00 0.02 0.00 62 1006.6
20260506041530 61 290 1.0 8.0 0.00 0.02 0.00 60 1006.3
20260506040029 61 313 2.0 9.0 0.00 0.02 0.00 59 1006.1
20260506034530 61 349 1.0 3.0 0.00 0.02 0.02 57 1005.9
20260506033027 62 349 1.0 4.0 0.00 0.02 0.02 56 1005.7
20260506031525 63 349 3.0 4.0 0.00 0.02 0.02 54 1005.7
20260506030036 64 311 5.0 11.0 0.00 0.02 0.02 50 1006.0
20260506024546 66 333 5.0 10.0 0.00 0.02 0.02 43 1006.0
20260506023022 67 223 6.0 11.0 0.00 0.02 0.02 40 1005.7
20260506021524 67 207 4.0 9.0 0.00 0.02 0.02 40 1005.8
20260506020023 67 234 6.0 9.0 0.00 0.02 0.02 39 1005.6
20260506014523 67 205 4.0 12.0 0.00 0.02 0.02 39 1005.7
20260506013034 68 224 4.0 14.0 0.00 0.02 0.02 39 1005.5
20260506011520 68 220 4.0 10.0 0.00 0.02 0.02 38 1005.4
20260506010024 68 180 4.0 9.0 0.00 0.02 0.02 38 1005.5
20260506004520 68 238 7.0 15.0 0.00 0.02 0.02 37 1005.5
20260506003018 69 237 4.0 15.0 0.00 0.02 0.02 37 1005.6
20260506001520 69 209 8.0 15.0 0.00 0.02 0.02 37 1005.5
20260506000017 69 217 8.0 14.0 0.00 0.02 0.02 37 1005.8
20260505234516 70 203 5.0 14.0 0.00 0.02 0.02 37 1005.4
20260505233018 70 217 8.0 16.0 0.00 0.02 0.02 37 1005.4
20260505231514 70 226 8.0 23.0 0.00 0.02 0.02 37 1005.5
20260505230033 70 215 12.0 21.0 0.00 0.02 0.02 37 1005.4
20260505224512 70 225 10.0 15.0 0.00 0.02 0.02 39 1005.6
20260505223011 70 234 6.0 16.0 0.00 0.02 0.02 39 1005.8
20260505221511 71 225 9.0 19.0 0.00 0.02 0.02 39 1005.7
20260505220009 71 223 11.0 20.0 0.00 0.02 0.02 38 1005.8
20260505214510 71 248 12.0 25.0 0.00 0.02 0.02 38 1005.7
20260505213009 71 209 11.0 25.0 0.00 0.02 0.02 39 1005.6
20260505211508 71 191 9.0 16.0 0.00 0.02 0.02 39 1005.6
20260505210006 71 216 11.0 22.0 0.00 0.02 0.02 39 1005.6
20260505204507 72 211 13.0 22.0 0.00 0.02 0.02 38 1005.6
20260505203005 72 222 8.0 15.0 0.00 0.02 0.02 39 1005.5
20260505201506 72 213 6.0 14.0 0.00 0.02 0.02 38 1005.5
20260505200005 71 200 6.0 12.0 0.00 0.02 0.02 38 1005.8
20260505194502 71 234 9.0 15.0 0.00 0.02 0.02 37 1005.9
20260505193101 71 251 9.0 14.0 0.00 0.02 0.02 37 1006.2
20260505191602 71 254 11.0 19.0 0.00 0.02 0.02 37 1006.1
20260505190059 71 262 10.0 20.0 0.00 0.02 0.02 38 1006.3
20260505184559 70 231 13.0 27.0 0.00 0.02 0.02 38 1006.0
20260505183105 71 269 13.0 25.0 0.00 0.02 0.02 37 1006.2
20260505181557 71 255 18.0 28.0 0.00 0.02 0.02 36 1006.2
20260505180055 71 251 18.0 28.0 0.00 0.02 0.02 37 1006.4
20260505174558 70 254 15.0 29.0 0.00 0.02 0.02 38 1006.6
20260505173054 69 217 15.0 25.0 0.00 0.02 0.02 39 1006.6
20260505171554 69 237 17.0 31.0 0.00 0.02 0.02 38 1006.1
20260505170053 70 222 17.0 31.0 0.00 0.02 0.02 36 1005.8
20260505164600 71 202 16.0 29.0 0.00 0.02 0.02 37 1006.0
20260505163056 70 222 16.0 22.0 0.00 0.02 0.02 38 1006.1
20260505161549 70 232 13.0 27.0 0.00 0.02 0.02 39 1006.3
20260505153051 69 253 8.0 20.0 0.00 0.02 0.02 42 1006.5
20260505151548 69 223 9.0 15.0 0.00 0.02 0.02 42 1006.3
20260505124526 65 241 10.0 19.0 0.00 0.02 0.02 46 1006.8
20260505123018 65 234 9.0 23.0 0.00 0.02 0.02 47 1006.8
20260505121516 64 210 11.0 18.0 0.00 0.02 0.02 48 1006.8
20260505120014 64 195 7.0 16.0 0.00 0.02 0.02 48 1006.7
20260505114529 64 277 7.0 16.0 0.00 0.02 0.02 48 1006.8
20260505113013 64 221 7.0 17.0 0.00 0.02 0.02 48 1006.8